Location: Fornova de Taro
(44.7000°N, 10.1000°E)
Time: 03:31:25
(UTC+00:00)

Cosmos 292 Rocket - Pass Details

Date: 26 September 2022
Orbit: 673 x 692 km, 74.0° (Epoch: 27 November)

Event Time Altitude Azimuth Distance (km) Brightness Sun altitude
Exits shadow 02:00:36 33° 30° (NNE) 1,159 5.3 -32.7°
Drops below altitude 10° 02:03:18 10° 24° (NNE) 2,156 7.0 -32.3°
Sets 02:05:37 0° 23° (NNE) 3,076 7.9 -31.9°
